This demonstration page uses our WeatherBlox Daily Observations layout. Learn more.

Left ArrowRight Arrow

Hourly Observations for April 2, 2017

Temp ( °F °C ) Dew Point ( °F °C ) Humidity (%) Winds ( mph kmh ) Pressure ( in mb ) Visibility ( mi km ) Precip ( " mm )
12:59 am 00:59 Mostly Clear 52 11.1 40 4.4 64 64 N 14 22 30.13 1020 10 16 0.00 0.00
1:59 am 01:59 Partly Cloudy 51 10.6 39 3.9 64 64 N 13 20 30.14 1021 10 16 0.00 0.00
2:59 am 02:59 Clear 50 10 38 3.3 63 63 N 9 15 30.14 1021 10 16 0.00 0.00
3:59 am 03:59 Clear 50 10 38 3.3 63 63 N 13 20 30.14 1021 10 16 0.00 0.00
4:59 am 04:59 Clear 49 9.4 37 2.8 64 64 N 12 19 30.16 1021 10 16 0.00 0.00
5:59 am 05:59 Mostly Clear 49 9.4 38 3.3 66 66 N 13 20 30.18 1022 10 16 0.00 0.00
6:59 am 06:59 Partly Cloudy 48 8.9 39 3.9 71 71 NNW 9 15 30.20 1023 10 16 0.00 0.00
7:59 am 07:59 Partly Cloudy 50 10 38 3.3 63 63 NNW 7 11 30.22 1023 10 16 0.00 0.00
8:59 am 08:59 Mostly Cloudy 53 11.7 37 2.8 55 55 N 13 20 30.23 1024 10 16 0.00 0.00
9:59 am 09:59 Mostly Cloudy 54 12.2 38 3.3 55 55 N 12 19 30.24 1024 10 16 0.00 0.00
10:59 am 10:59 Mostly Sunny 55 12.8 36 2.2 49 49 N 14 22 30.26 1025 10 16 0.00 0.00
11:59 am 11:59 Mostly Sunny 56 13.3 38 3.3 51 51 NNE 13 20 30.27 1025 10 16 0.00 0.00
12:59 pm 12:59 Mostly Sunny 57 13.9 39 3.9 51 51 NE 9 15 30.24 1024 10 16 0.00 0.00
1:59 pm 13:59 Mostly Cloudy 57 13.9 35 1.7 44 44 ENE 7 11 30.23 1024 10 16 0.00 0.00
2:59 pm 14:59 Partly Cloudy 59 15 37 2.8 44 44 VRB 6 9 30.21 1023 10 16 0.00 0.00
3:59 pm 15:59 Partly Cloudy 59 15 34 1.1 39 39 ENE 6 9 30.19 1022 10 16 0.00 0.00
4:59 pm 16:59 Partly Cloudy 59 15 35 1.7 41 41 E 6 9 30.19 1022 10 16 0.00 0.00
5:59 pm 17:59 Partly Cloudy 59 15 35 1.7 41 41 E 6 9 30.18 1022 10 16 0.00 0.00
6:59 pm 18:59 Partly Cloudy 56 13.3 37 2.8 49 49 ENE 3 6 30.19 1022 10 16 0.00 0.00
7:59 pm 19:59 Partly Cloudy 51 10.6 37 2.8 59 59 SE 5 7 30.19 1022 10 16 0.00 0.00
8:59 pm 20:59 Clear 51 10.6 38 3.3 61 61 SSE 6 9 30.20 1023 10 16 0.00 0.00
9:59 pm 21:59 Mostly Clear 51 10.6 38 3.3 61 61 S 6 9 30.21 1023 10 16 0.00 0.00
10:59 pm 22:59 Mostly Clear 50 10 39 3.9 66 66 SSE 5 7 30.18 1022 10 16 0.00 0.00
11:59 pm 23:59 Mostly Cloudy 49 9.4 39 3.9 69 69 S 3 6 30.19 1023 10 16 0.00 0.00

Powered by AerisWeather